EW7883 Weather Reports


time (UTC)temp
F
wind
direction
speed
knots
gust
knots
rain 1hr
in
rain 24hr
in
rain mn
in
humidity
%
barometer
mb
20260506144521 52 331 2.6 7.8 0.00 0.01 0.00 50 1009.3
20260506143018 52 273 1.7 7.8 0.00 0.01 0.00 50 1009.1
20260506141516 51 277 4.3 7.8 0.00 0.01 0.00 50 1009.2
20260506140016 51 319 2.6 7.0 0.00 0.01 0.00 52 1008.9
20260506134526 50 12 0.9 7.0 0.00 0.01 0.00 56 1009.0
20260506133011 49 263 4.3 9.6 0.00 0.01 0.00 56 1008.8
20260506131510 49 281 2.6 4.3 0.00 0.01 0.00 55 1008.7
20260506130007 48 319 1.7 6.1 0.00 0.01 0.00 55 1008.4
20260506124510 47 324 1.7 3.5 0.00 0.01 0.00 53 1008.4
20260506123003 47 329 1.7 4.3 0.00 0.01 0.00 53 1008.1
20260506121500 46 360 0.0 2.6 0.00 0.01 0.00 53 1007.9
20260506114558 46 360 0.0 1.7 0.00 0.01 0.00 54 1007.9
20260506113055 46 360 0.0 3.5 0.00 0.01 0.00 55 1007.5
20260506111610 46 360 0.9 2.6 0.00 0.01 0.00 56 1007.4
20260506110054 46 360 0.0 2.6 0.00 0.01 0.00 56 1007.1
20260506104549 46 360 0.0 2.6 0.00 0.01 0.00 56 1007.0
20260506103046 47 360 0.0 2.6 0.00 0.01 0.00 56 1006.5
20260506101542 47 360 0.0 1.7 0.00 0.01 0.00 56 1006.5
20260506100041 47 360 0.0 1.7 0.00 0.01 0.00 57 1006.3
20260506094540 47 360 0.0 1.7 0.00 0.01 0.00 57 1006.4
20260506093038 47 360 0.0 1.7 0.00 0.01 0.00 57 1006.0
20260506091540 47 360 0.0 2.6 0.00 0.01 0.00 57 1006.3
20260506090036 47 360 0.0 1.7 0.00 0.01 0.00 57 1005.9
20260506084536 47 360 0.0 2.6 0.00 0.01 0.00 57 1005.9
20260506083034 48 360 0.0 2.6 0.00 0.01 0.00 57 1006.0
20260506081542 48 360 0.0 0.0 0.00 0.01 0.00 57 1005.8
20260506073033 48 360 0.0 2.6 0.00 0.01 0.00 57 1005.9
20260506071533 48 360 0.0 2.6 0.00 0.01 0.00 57 1005.6
20260506061531 48 360 0.0 2.6 0.00 0.01 0.00 57 1006.1
20260506044517 49 276 0.0 0.9 0.00 0.13 0.00 56 1006.1
20260506043013 50 276 0.0 1.7 0.00 0.13 0.00 55 1006.2
20260506041507 50 276 0.0 1.7 0.00 0.13 0.00 54 1006.1
20260506040005 50 276 0.0 0.0 0.00 0.13 0.00 53 1005.7
20260506034604 50 360 0.0 0.0 0.00 0.13 0.13 53 1005.8
20260506033056 50 360 0.0 0.0 0.00 0.13 0.13 52 1005.8
20260506031552 50 360 0.0 0.9 0.00 0.13 0.13 52 1006.1
20260506030047 51 360 0.0 2.6 0.00 0.13 0.13 50 1006.0
20260506024551 51 360 0.9 2.6 0.00 0.13 0.13 50 1006.0
20260506023039 51 360 0.9 1.7 0.00 0.13 0.13 50 1006.0
20260506021535 51 360 0.9 2.6 0.00 0.13 0.13 49 1005.9
20260506020031 51 360 0.9 3.5 0.00 0.13 0.13 48 1005.9
20260506014527 52 360 0.9 3.5 0.00 0.13 0.13 48 1005.6
20260506013022 52 360 0.0 2.6 0.00 0.13 0.13 49 1005.4
20260506011537 52 360 0.0 3.5 0.00 0.13 0.13 50 1005.3
20260506010012 52 360 0.9 3.5 0.00 0.13 0.13 50 1005.2
20260506004508 53 360 0.9 2.6 0.00 0.14 0.13 52 1005.3
20260506003003 53 360 0.9 2.6 0.00 0.14 0.13 51 1005.4
20260506001604 53 360 0.0 2.6 0.00 0.14 0.13 52 1005.2
20260506000120 53 360 0.9 2.6 0.00 0.14 0.13 50 1005.1
20260505234558 53 360 0.9 2.6 0.00 0.30 0.13 50 1004.7
20260505233100 53 360 0.9 2.6 0.00 0.30 0.13 50 1004.5
20260505231612 54 360 1.7 3.5 0.00 0.30 0.13 51 1004.5
20260505230107 54 360 1.7 3.5 0.00 0.30 0.13 51 1004.5
20260505224558 54 360 0.9 4.3 0.00 0.30 0.13 52 1004.6
20260505223054 54 360 3.5 7.0 0.00 0.30 0.13 52 1004.6
20260505221600 54 360 3.5 10.4 0.00 0.30 0.13 54 1004.6
20260505220057 55 360 1.7 7.0 0.00 0.30 0.13 53 1004.5
20260505214553 55 360 1.7 5.2 0.00 0.30 0.13 53 1004.6
20260505213054 55 360 1.7 7.0 0.00 0.30 0.13 51 1004.6
20260505211551 55 360 2.6 7.0 0.00 0.30 0.13 52 1004.4
20260505210051 55 360 1.7 4.3 0.00 0.30 0.13 48 1004.5
20260505204553 55 360 0.9 7.0 0.00 0.30 0.13 44 1004.6
20260505203059 55 360 1.7 4.3 0.00 0.30 0.13 45 1004.8
20260505201550 55 360 2.6 5.2 0.00 0.30 0.13 45 1004.8
20260505200050 54 360 0.9 5.2 0.00 0.30 0.13 43 1004.8
20260505194604 54 360 2.6 4.3 0.00 0.30 0.13 41 1004.8
20260505193044 54 360 1.7 5.2 0.00 0.30 0.13 40 1004.9
20260505191552 53 360 2.6 5.2 0.00 0.30 0.13 42 1004.9
20260505190039 53 360 2.6 7.0 0.00 0.30 0.13 40 1005.1
20260505184535 53 360 0.9 7.0 0.00 0.30 0.13 33 1005.2
20260505183026 54 360 1.7 11.3 0.00 0.30 0.13 37 1004.9
20260505181523 54 360 1.7 7.8 0.00 0.30 0.13 28 1004.7
20260505180018 53 360 2.6 8.7 0.01 0.30 0.13 32 1004.5
20260505174514 53 360 1.7 10.4 0.01 0.30 0.13 27 1004.4
20260505173010 53 360 3.5 7.8 0.01 0.30 0.13 19 1004.1
20260505171505 52 360 2.6 7.0 0.01 0.30 0.13 13 1004.2
20260505164604 52 360 4.3 10.4 0.00 0.28 0.12 26 1004.3
20260505163052 53 360 4.3 8.7 0.00 0.28 0.12 36 1004.5
20260505161551 54 360 4.3 9.6 0.00 0.28 0.12 49 1004.6
20260505153033 57 286 2.6 7.0 0.00 0.28 0.12 55 1003.3
20260505151532 58 280 0.9 8.7 0.00 0.28 0.12 54 1003.3